Hourly Data Report for October 01, 2013

All times are specified in Local Standard Time (LST). Add 1 hour to adjust for Daylight Saving Time where and when it is observed.

ARVIAT A
NUNAVUT

61°05'38.000" N
94°04'18.000" W
10.40 m
2300427
71174
YEK

Download Data

Hourly Data (October 2013)
Hourly Data Report for October 1, 2013
Temp Definition
°C
Dew Point Temp Definition
°C
Rel Hum Definition
%
Wind Dir Definition
10's deg

Wind Spd Definition
km/h
Visibility Definition
km
Stn Press Definition
kPa
Hmdx Definition


Wind Chill Definition


Weather Definition


TIME
00:00 Legend Double Dagger 2.4 0.5 87 5 30 16.1 100.36     LegendNANA
01:00 Legend Double Dagger 1.9 0.9 93 4 30 16.1 100.37     LegendNANA
02:00 Legend Double Dagger 1.7 -0.2 87 4 28 16.1 100.38     LegendNANA
03:00 Legend Double Dagger 1.3 -0.7 87 4 33 16.1 100.41     LegendNANA
04:00 Legend Double Dagger 1.2 0.2 93 4 28 16.1 100.42     LegendNANA
05:00 Legend Double Dagger 1.4 -0.2 89 4 30 12.9 100.44     LegendNANA
06:00 Legend Double Dagger 1.0 -0.8 88 4 32 16.1 100.46     LegendNANA
07:00 Legend Double Dagger 1.6 -1.7 79 3 30 16.1 100.48     LegendNANA
08:00 Legend Double Dagger 1.6 -1.9 78 4 32 16.1 100.49     LegendNANA
09:00 Legend Double Dagger 1.8 -1.5 79 4 32 16.1 100.48     LegendNANA
10:00 Legend Double Dagger 1.8 -1.6 78 3 35 16.1 100.48     LegendNANA
11:00 Legend Double Dagger 0.9 0.3 96 2 32 8.1 100.47     LegendNANA
12:00 Legend Double Dagger 1.5 1.1 97 2 28 16.1 100.51     LegendNANA
13:00 Legend Double Dagger 1.8 0.8 93 2 33 16.1 100.51     LegendNANA
14:00 Legend Double Dagger 1.5 1.1 97 3 28 16.1 100.52     LegendNANA
15:00 Legend Double Dagger 2.1 0.7 90 2 32 16.1 100.54     LegendNANA
16:00 Legend Double Dagger 1.4 0.5 94 4 28 16.1 100.58     LegendNANA
17:00 Legend Double Dagger 1.5 0.7 95 2 30 14.5 100.63     LegendNANA
18:00 Legend Double Dagger 1.4 -0.7 86 2 30 16.1 100.67     LegendNANA
19:00 Legend Double Dagger 0.9 -2.2 80 2 33 16.1 100.71     LegendNANA
20:00 Legend Double Dagger 0.0 -1.5 89 2 30 11.3 100.75   -6 LegendNANA
21:00 Legend Double Dagger -0.2 -3.1 81 35 30 16.1 100.77   -7 LegendNANA
22:00 Legend Double Dagger -0.2 -3.1 81 35 26 16.1 100.77   -6 LegendNANA
23:00 Legend Double Dagger -0.6 -3.1 83 35 28 16.1 100.80   -7 LegendNANA

Notes on Data Quality.

Legend

  • E = Estimated
  • M = Missing
  • NA = Not Available
  • ‡ = Partner data that is not subject to review by the National Climate Archives
Date modified: